STARLINK-32886 (62807 NORAD) Tracking and Keplerian Element Data

This shows tracking and keplerian element data for the satellite.

Feedback or suggestion? Click here.




ElementValue
Catalog62807
NameSTARLINK-32886
Epoch Orbit5100
Epoch Day354.16175303
Epoch Year2025
RAAN318.9032
Inclination53.1626
Eccentricity0.0001377
Argument of Perigee98.3502
Mean Anonmoly261.7655
Mean Motion15.30202786
Decay Rate0.00020755
L11 62807U 25018B 25354.16175303 .00020755 00000+0 71084-3 0 9995
L22 62807 53.1626 318.9032 0001377 98.3502 261.7655 15.30202786 51001



Live tracking and technical data element details for STARLINK-32886 (NORAD 62807). STARLINK-32886 can be tracked NOW for your location showing map with azimuth and elevation plus other details from your city location.







IsCatalogInMostPopularTable: catalog: 62807, numindb: 252
Update: records affected: 1



GetName: 62807 STARLINK-32886

Hit Count: updated at: Tue, 20 Jan 2026 17:58:40 GMT